Time,TemperatureF,DewpointF,PressureIn,WindDirection,WindDirectionDegrees,WindSpeedMPH,WindSpeedGustMPH,Humidity,HourlyPrecipIn,Conditions,Clouds,dailyrainin,SoftwareType,DateUTC
2013-01-21 00:02:00,60.0,1.0,-100.00,ESE,105,6.0,10.0,9,-99.99,,,-99.99,,2013-01-21 08:02:00,
2013-01-21 00:13:00,60.0,1.0,-100.00,ESE,113,8.0,12.0,9,-99.99,,,-99.99,,2013-01-21 08:13:00,
2013-01-21 00:22:00,60.0,1.0,-100.00,ESE,106,7.0,13.0,9,-99.99,,,-99.99,,2013-01-21 08:22:00,
2013-01-21 00:32:00,60.0,1.0,-100.00,East,91,7.0,11.0,9,-99.99,,,-99.99,,2013-01-21 08:32:00,
2013-01-21 00:42:00,59.0,0.0,-100.00,East,92,7.0,10.0,9,-99.99,,,-99.99,,2013-01-21 08:42:00,
2013-01-21 00:53:00,58.0,2.0,-100.00,ESE,107,6.0,13.0,10,-99.99,,,-99.99,,2013-01-21 08:53:00,
2013-01-21 01:02:00,59.0,0.0,-100.00,ESE,103,8.0,15.0,9,-99.99,,,-99.99,,2013-01-21 09:02:00,
2013-01-21 01:12:00,60.0,1.0,-100.00,East,91,8.0,18.0,9,-99.99,,,-99.99,,2013-01-21 09:12:00,
2013-01-21 01:22:00,59.0,0.0,-100.00,ESE,120,4.0,13.0,9,-99.99,,,-99.99,,2013-01-21 09:22:00,
2013-01-21 01:32:00,59.0,0.0,-100.00,SW,218,2.0,5.0,9,-99.99,,,-99.99,,2013-01-21 09:32:00,
2013-01-21 01:42:00,58.0,0.0,-100.00,SE,127,3.0,10.0,9,-99.99,,,-99.99,,2013-01-21 09:42:00,
2013-01-21 01:52:00,59.0,0.0,-100.00,ESE,121,4.0,13.0,9,-99.99,,,-99.99,,2013-01-21 09:52:00,
2013-01-21 02:02:00,59.0,0.0,-100.00,ESE,121,4.0,13.0,9,-99.99,,,-99.99,,2013-01-21 10:02:00,
2013-01-21 02:12:00,59.0,0.0,-100.00,East,95,3.0,7.0,9,-99.99,,,-99.99,,2013-01-21 10:12:00,
2013-01-21 02:22:00,59.0,0.0,-100.00,East,97,4.0,9.0,9,-99.99,,,-99.99,,2013-01-21 10:22:00,
2013-01-21 02:32:00,59.0,-2.0,-100.00,ENE,78,8.0,20.0,8,-99.99,,,-99.99,,2013-01-21 10:32:00,
2013-01-21 02:42:00,59.0,-2.0,-100.00,East,88,11.0,18.0,8,-99.99,,,-99.99,,2013-01-21 10:42:00,
2013-01-21 02:52:00,60.0,-1.0,-100.00,East,87,11.0,18.0,8,-99.99,,,-99.99,,2013-01-21 10:52:00,
2013-01-21 03:02:00,60.0,-1.0,-100.00,East,89,12.0,19.0,8,-99.99,,,-99.99,,2013-01-21 11:02:00,
2013-01-21 03:12:00,60.0,-1.0,-100.00,East,88,15.0,23.0,8,-99.99,,,-99.99,,2013-01-21 11:12:00,
2013-01-21 03:22:00,60.0,-1.0,-100.00,East,87,14.0,23.0,8,-99.99,,,-99.99,,2013-01-21 11:22:00,
2013-01-21 03:32:00,60.0,-1.0,-100.00,East,88,12.0,22.0,8,-99.99,,,-99.99,,2013-01-21 11:32:00,
2013-01-21 03:42:00,60.0,-1.0,-100.00,East,88,12.0,22.0,8,-99.99,,,-99.99,,2013-01-21 11:42:00,
2013-01-21 03:53:00,59.0,-2.0,-100.00,East,84,14.0,20.0,8,-99.99,,,-99.99,,2013-01-21 11:53:00,
2013-01-21 04:02:00,60.0,-1.0,-100.00,East,86,15.0,24.0,8,-99.99,,,-99.99,,2013-01-21 12:02:00,
2013-01-21 04:12:00,59.0,-2.0,-100.00,East,87,14.0,21.0,8,-99.99,,,-99.99,,2013-01-21 12:12:00,
2013-01-21 04:22:00,59.0,0.0,-100.00,East,88,14.0,22.0,9,-99.99,,,-99.99,,2013-01-21 12:22:00,
2013-01-21 04:32:00,59.0,-2.0,-100.00,East,85,16.0,23.0,8,-99.99,,,-99.99,,2013-01-21 12:32:00,
2013-01-21 04:42:00,59.0,-2.0,-100.00,East,84,15.0,24.0,8,-99.99,,,-99.99,,2013-01-21 12:42:00,
2013-01-21 04:52:00,59.0,-2.0,-100.00,East,83,15.0,26.0,8,-99.99,,,-99.99,,2013-01-21 12:52:00,
2013-01-21 05:02:00,59.0,-2.0,-100.00,East,81,14.0,22.0,8,-99.99,,,-99.99,,2013-01-21 13:02:00,
2013-01-21 05:12:00,59.0,-2.0,-100.00,East,80,15.0,24.0,8,-99.99,,,-99.99,,2013-01-21 13:12:00,
2013-01-21 05:22:00,59.0,-2.0,-100.00,East,86,17.0,26.0,8,-99.99,,,-99.99,,2013-01-21 13:22:00,
2013-01-21 05:32:00,59.0,-2.0,-100.00,ENE,76,15.0,25.0,8,-99.99,,,-99.99,,2013-01-21 13:32:00,
2013-01-21 05:42:00,59.0,-2.0,-100.00,ENE,76,15.0,25.0,8,-99.99,,,-99.99,,2013-01-21 13:42:00,
2013-01-21 05:53:00,59.0,-2.0,-100.00,East,81,16.0,24.0,8,-99.99,,,-99.99,,2013-01-21 13:53:00,
2013-01-21 06:03:00,59.0,-2.0,-100.00,East,83,16.0,27.0,8,-99.99,,,-99.99,,2013-01-21 14:03:00,
2013-01-21 06:12:00,59.0,-2.0,-100.00,East,87,15.0,29.0,8,-99.99,,,-99.99,,2013-01-21 14:12:00,
2013-01-21 06:22:00,59.0,-2.0,-100.00,East,84,16.0,29.0,8,-99.99,,,-99.99,,2013-01-21 14:22:00,
2013-01-21 06:32:00,59.0,-2.0,-100.00,East,83,17.0,28.0,8,-99.99,,,-99.99,,2013-01-21 14:32:00,
2013-01-21 06:43:00,59.0,-2.0,-100.00,East,84,15.0,26.0,8,-99.99,,,-99.99,,2013-01-21 14:43:00,
2013-01-21 06:52:00,59.0,-2.0,-100.00,East,83,15.0,31.0,8,-99.99,,,-99.99,,2013-01-21 14:52:00,
2013-01-21 07:03:00,59.0,-2.0,-100.00,East,82,17.0,27.0,8,-99.99,,,-99.99,,2013-01-21 15:03:00,
2013-01-21 07:12:00,59.0,-2.0,-100.00,East,83,17.0,29.0,8,-99.99,,,-99.99,,2013-01-21 15:12:00,
2013-01-21 07:22:00,59.0,-2.0,-100.00,East,79,17.0,30.0,8,-99.99,,,-99.99,,2013-01-21 15:22:00,
2013-01-21 07:32:00,59.0,0.0,-100.00,East,82,16.0,28.0,9,-99.99,,,-99.99,,2013-01-21 15:32:00,
2013-01-21 07:42:00,59.0,0.0,-100.00,East,82,16.0,28.0,9,-99.99,,,-99.99,,2013-01-21 15:42:00,
2013-01-21 07:52:00,59.0,0.0,-100.00,East,81,17.0,26.0,9,-99.99,,,-99.99,,2013-01-21 15:52:00,
2013-01-21 08:03:00,59.0,0.0,-100.00,East,81,17.0,26.0,9,-99.99,,,-99.99,,2013-01-21 16:03:00,
2013-01-21 08:12:00,59.0,0.0,-100.00,East,85,17.0,25.0,9,-99.99,,,-99.99,,2013-01-21 16:12:00,
2013-01-21 08:22:00,59.0,0.0,-100.00,East,79,15.0,25.0,9,-99.99,,,-99.99,,2013-01-21 16:22:00,
2013-01-21 08:32:00,60.0,1.0,-100.00,East,83,16.0,26.0,9,-99.99,,,-99.99,,2013-01-21 16:32:00,
2013-01-21 08:43:00,60.0,-1.0,-100.00,East,83,17.0,29.0,8,-99.99,,,-99.99,,2013-01-21 16:43:00,
2013-01-21 08:53:00,61.0,-1.0,-100.00,ENE,77,17.0,29.0,8,-99.99,,,-99.99,,2013-01-21 16:53:00,
2013-01-21 09:02:00,61.0,-1.0,-100.00,ENE,77,17.0,29.0,8,-99.99,,,-99.99,,2013-01-21 17:02:00,
2013-01-21 09:12:00,62.0,0.0,-100.00,East,79,17.0,29.0,8,-99.99,,,-99.99,,2013-01-21 17:12:00,
2013-01-21 09:22:00,62.0,0.0,-100.00,ENE,75,15.0,25.0,8,-99.99,,,-99.99,,2013-01-21 17:22:00,
2013-01-21 09:33:00,63.0,1.0,-100.00,ENE,78,15.0,30.0,8,-99.99,,,-99.99,,2013-01-21 17:33:00,
2013-01-21 09:42:00,63.0,1.0,-100.00,East,82,14.0,30.0,8,-99.99,,,-99.99,,2013-01-21 17:42:00,
2013-01-21 09:52:00,63.0,1.0,-100.00,ENE,78,14.0,26.0,8,-99.99,,,-99.99,,2013-01-21 17:52:00,
2013-01-21 10:02:00,64.0,2.0,-100.00,East,79,15.0,30.0,8,-99.99,,,-99.99,,2013-01-21 18:02:00,
2013-01-21 10:12:00,64.0,2.0,-100.00,East,81,17.0,27.0,8,-99.99,,,-99.99,,2013-01-21 18:12:00,
2013-01-21 10:22:00,64.0,2.0,-100.00,ENE,78,15.0,25.0,8,-99.99,,,-99.99,,2013-01-21 18:22:00,
2013-01-21 10:33:00,64.0,2.0,-100.00,ENE,76,16.0,31.0,8,-99.99,,,-99.99,,2013-01-21 18:33:00,
2013-01-21 10:42:00,65.0,2.0,-100.00,East,81,12.0,23.0,8,-99.99,,,-99.99,,2013-01-21 18:42:00,
2013-01-21 10:52:00,66.0,3.0,-100.00,East,83,15.0,25.0,8,-99.99,,,-99.99,,2013-01-21 18:52:00,
2013-01-21 11:02:00,66.0,3.0,-100.00,ENE,78,14.0,27.0,8,-99.99,,,-99.99,,2013-01-21 19:02:00,
2013-01-21 11:12:00,66.0,3.0,-100.00,East,79,14.0,25.0,8,-99.99,,,-99.99,,2013-01-21 19:12:00,
2013-01-21 11:22:00,66.0,3.0,-100.00,East,87,13.0,20.0,8,-99.99,,,-99.99,,2013-01-21 19:22:00,
2013-01-21 11:32:00,67.0,4.0,-100.00,East,87,10.0,23.0,8,-99.99,,,-99.99,,2013-01-21 19:32:00,
2013-01-21 11:42:00,67.0,1.0,-100.00,East,79,8.0,22.0,7,-99.99,,,-99.99,,2013-01-21 19:42:00,
2013-01-21 11:52:00,68.0,2.0,-100.00,East,82,9.0,16.0,7,-99.99,,,-99.99,,2013-01-21 19:52:00,
2013-01-21 12:12:00,69.0,2.0,-100.00,East,88,9.0,16.0,7,-99.99,,,-99.99,,2013-01-21 20:12:00,
2013-01-21 12:22:00,68.0,5.0,-100.00,ENE,73,9.0,17.0,8,-99.99,,,-99.99,,2013-01-21 20:22:00,
2013-01-21 12:32:00,68.0,5.0,-100.00,East,86,11.0,18.0,8,-99.99,,,-99.99,,2013-01-21 20:32:00,
2013-01-21 12:42:00,68.0,5.0,-100.00,East,86,11.0,18.0,8,-99.99,,,-99.99,,2013-01-21 20:42:00,
2013-01-21 12:52:00,67.0,4.0,-100.00,East,79,12.0,19.0,8,-99.99,,,-99.99,,2013-01-21 20:52:00,
2013-01-21 13:02:00,68.0,7.0,-100.00,ENE,71,11.0,20.0,9,-99.99,,,-99.99,,2013-01-21 21:02:00,
2013-01-21 13:12:00,68.0,7.0,-100.00,NE,54,9.0,17.0,9,-99.99,,,-99.99,,2013-01-21 21:12:00,
2013-01-21 13:22:00,67.0,4.0,-100.00,ENE,64,9.0,16.0,8,-99.99,,,-99.99,,2013-01-21 21:22:00,
2013-01-21 13:32:00,69.0,5.0,-100.00,East,80,8.0,15.0,8,-99.99,,,-99.99,,2013-01-21 21:32:00,
2013-01-21 13:43:00,69.0,5.0,-100.00,ENE,78,8.0,14.0,8,-99.99,,,-99.99,,2013-01-21 21:43:00,
2013-01-21 13:53:00,68.0,5.0,-100.00,ENE,65,7.0,13.0,8,-99.99,,,-99.99,,2013-01-21 21:53:00,
2013-01-21 14:02:00,68.0,5.0,-100.00,ENE,65,7.0,13.0,8,-99.99,,,-99.99,,2013-01-21 22:02:00,
2013-01-21 14:12:00,68.0,5.0,-100.00,NE,45,7.0,14.0,8,-99.99,,,-99.99,,2013-01-21 22:12:00,
2013-01-21 14:22:00,69.0,8.0,-100.00,NE,45,7.0,13.0,9,-99.99,,,-99.99,,2013-01-21 22:22:00,
2013-01-21 14:33:00,68.0,7.0,-100.00,NE,54,8.0,15.0,9,-99.99,,,-99.99,,2013-01-21 22:33:00,
2013-01-21 14:42:00,68.0,7.0,-100.00,NE,54,8.0,15.0,9,-99.99,,,-99.99,,2013-01-21 22:42:00,
2013-01-21 14:52:00,68.0,7.0,-100.00,NE,41,8.0,13.0,9,-99.99,,,-99.99,,2013-01-21 22:52:00,
2013-01-21 15:02:00,68.0,7.0,-100.00,NE,41,8.0,13.0,9,-99.99,,,-99.99,,2013-01-21 23:02:00,
2013-01-21 15:12:00,68.0,7.0,-100.00,NE,51,8.0,14.0,9,-99.99,,,-99.99,,2013-01-21 23:12:00,
2013-01-21 15:22:00,68.0,7.0,-100.00,NE,49,8.0,14.0,9,-99.99,,,-99.99,,2013-01-21 23:22:00,
2013-01-21 15:32:00,68.0,7.0,-100.00,ENE,64,6.0,11.0,9,-99.99,,,-99.99,,2013-01-21 23:32:00,
2013-01-21 15:42:00,68.0,7.0,-100.00,ENE,64,6.0,11.0,9,-99.99,,,-99.99,,2013-01-21 23:42:00,
2013-01-21 15:52:00,68.0,7.0,-100.00,ENE,76,6.0,11.0,9,-99.99,,,-99.99,,2013-01-21 23:52:00,
2013-01-21 16:02:00,68.0,9.0,-100.00,ENE,77,5.0,11.0,10,-99.99,,,-99.99,,2013-01-22 00:02:00,
2013-01-21 16:12:00,68.0,7.0,-100.00,East,79,7.0,15.0,9,-99.99,,,-99.99,,2013-01-22 00:12:00,
2013-01-21 16:22:00,66.0,6.0,-100.00,ENE,76,9.0,14.0,9,-99.99,,,-99.99,,2013-01-22 00:22:00,
2013-01-21 16:32:00,66.0,6.0,-100.00,ENE,71,7.0,11.0,9,-99.99,,,-99.99,,2013-01-22 00:32:00,
2013-01-21 16:42:00,66.0,6.0,-100.00,ENE,71,7.0,11.0,9,-99.99,,,-99.99,,2013-01-22 00:42:00,
2013-01-21 16:53:00,65.0,5.0,-100.00,ENE,73,8.0,13.0,9,-99.99,,,-99.99,,2013-01-22 00:53:00,
2013-01-21 17:02:00,64.0,4.0,-100.00,ENE,76,8.0,13.0,9,-99.99,,,-99.99,,2013-01-22 01:02:00,
2013-01-21 17:12:00,63.0,6.0,-100.00,East,87,9.0,13.0,10,-99.99,,,-99.99,,2013-01-22 01:12:00,
2013-01-21 17:22:00,63.0,3.0,-100.00,ESE,107,9.0,13.0,9,-99.99,,,-99.99,,2013-01-22 01:22:00,
2013-01-21 17:32:00,62.0,3.0,-100.00,ESE,104,7.0,12.0,9,-99.99,,,-99.99,,2013-01-22 01:32:00,
2013-01-21 17:42:00,62.0,3.0,-100.00,ESE,104,7.0,12.0,9,-99.99,,,-99.99,,2013-01-22 01:42:00,
2013-01-21 17:52:00,60.0,1.0,-100.00,ENE,76,11.0,18.0,9,-99.99,,,-99.99,,2013-01-22 01:52:00,
2013-01-21 18:02:00,60.0,1.0,-100.00,ENE,73,10.0,16.0,9,-99.99,,,-99.99,,2013-01-22 02:02:00,
2013-01-21 18:12:00,59.0,3.0,-100.00,East,84,8.0,17.0,10,-99.99,,,-99.99,,2013-01-22 02:12:00,
2013-01-21 18:22:00,59.0,5.0,-100.00,ENE,71,10.0,21.0,11,-99.99,,,-99.99,,2013-01-22 02:22:00,
2013-01-21 18:32:00,59.0,5.0,-100.00,ENE,73,14.0,23.0,11,-99.99,,,-99.99,,2013-01-22 02:32:00,
2013-01-21 18:42:00,59.0,3.0,-100.00,ENE,63,10.0,20.0,10,-99.99,,,-99.99,,2013-01-22 02:42:00,
2013-01-21 18:52:00,60.0,3.0,-100.00,ENE,78,17.0,28.0,10,-99.99,,,-99.99,,2013-01-22 02:52:00,
2013-01-21 19:02:00,60.0,1.0,-100.00,ENE,72,10.0,18.0,9,-99.99,,,-99.99,,2013-01-22 03:02:00,
2013-01-21 19:12:00,60.0,1.0,-100.00,East,96,10.0,15.0,9,-99.99,,,-99.99,,2013-01-22 03:12:00,
2013-01-21 19:22:00,59.0,3.0,-100.00,ESE,105,8.0,17.0,10,-99.99,,,-99.99,,2013-01-22 03:22:00,
2013-01-21 19:32:00,60.0,1.0,-100.00,ESE,111,8.0,16.0,9,-99.99,,,-99.99,,2013-01-22 03:32:00,
2013-01-21 19:42:00,60.0,1.0,-100.00,ESE,104,7.0,14.0,9,-99.99,,,-99.99,,2013-01-22 03:42:00,
2013-01-21 19:52:00,59.0,3.0,-100.00,ESE,102,9.0,17.0,10,-99.99,,,-99.99,,2013-01-22 03:52:00,
2013-01-21 20:02:00,60.0,1.0,-100.00,East,101,9.0,17.0,9,-99.99,,,-99.99,,2013-01-22 04:02:00,
2013-01-21 20:12:00,59.0,0.0,-100.00,East,93,6.0,13.0,9,-99.99,,,-99.99,,2013-01-22 04:12:00,
2013-01-21 20:22:00,59.0,0.0,-100.00,East,100,9.0,19.0,9,-99.99,,,-99.99,,2013-01-22 04:22:00,
2013-01-21 20:32:00,60.0,1.0,-100.00,ESE,119,9.0,18.0,9,-99.99,,,-99.99,,2013-01-22 04:32:00,
2013-01-21 20:42:00,60.0,1.0,-100.00,SE,124,11.0,20.0,9,-99.99,,,-99.99,,2013-01-22 04:42:00,
2013-01-21 20:52:00,59.0,3.0,-100.00,SE,125,10.0,17.0,10,-99.99,,,-99.99,,2013-01-22 04:52:00,
2013-01-21 21:03:00,59.0,3.0,-100.00,SE,125,10.0,17.0,10,-99.99,,,-99.99,,2013-01-22 05:03:00,
2013-01-21 21:12:00,59.0,3.0,-100.00,SE,139,8.0,18.0,10,-99.99,,,-99.99,,2013-01-22 05:12:00,
2013-01-21 21:22:00,60.0,1.0,-100.00,SE,134,10.0,19.0,9,-99.99,,,-99.99,,2013-01-22 05:22:00,
2013-01-21 21:32:00,60.0,1.0,-100.00,ESE,123,13.0,18.0,9,-99.99,,,-99.99,,2013-01-22 05:32:00,
2013-01-21 21:42:00,60.0,1.0,-100.00,SE,131,10.0,17.0,9,-99.99,,,-99.99,,2013-01-22 05:42:00,
2013-01-21 21:52:00,60.0,1.0,-100.00,SE,128,10.0,16.0,9,-99.99,,,-99.99,,2013-01-22 05:52:00,
2013-01-21 22:02:00,60.0,1.0,-100.00,ESE,121,11.0,16.0,9,-99.99,,,-99.99,,2013-01-22 06:02:00,
2013-01-21 22:12:00,60.0,-1.0,-100.00,ESE,110,11.0,16.0,8,-99.99,,,-99.99,,2013-01-22 06:12:00,
2013-01-21 22:22:00,60.0,-1.0,-100.00,ESE,104,12.0,16.0,8,-99.99,,,-99.99,,2013-01-22 06:22:00,
2013-01-21 22:32:00,60.0,-1.0,-100.00,ESE,123,12.0,17.0,8,-99.99,,,-99.99,,2013-01-22 06:32:00,
2013-01-21 22:42:00,60.0,-1.0,-100.00,ESE,120,12.0,17.0,8,-99.99,,,-99.99,,2013-01-22 06:42:00,
2013-01-21 22:52:00,60.0,-1.0,-100.00,ESE,110,11.0,14.0,8,-99.99,,,-99.99,,2013-01-22 06:52:00,
2013-01-21 23:02:00,60.0,-1.0,-100.00,ESE,110,11.0,14.0,8,-99.99,,,-99.99,,2013-01-22 07:02:00,
2013-01-21 23:11:00,60.0,-4.0,-100.00,ESE,114,11.0,15.0,7,-99.99,,,-99.99,,2013-01-22 07:11:00,
2013-01-21 23:22:00,59.0,-2.0,-100.00,ESE,108,11.0,14.0,8,-99.99,,,-99.99,,2013-01-22 07:22:00,
2013-01-21 23:32:00,59.0,-2.0,-100.00,ESE,102,11.0,14.0,8,-99.99,,,-99.99,,2013-01-22 07:32:00,
2013-01-21 23:42:00,59.0,-2.0,-100.00,ESE,102,11.0,14.0,8,-99.99,,,-99.99,,2013-01-22 07:42:00,
2013-01-21 23:52:00,59.0,-2.0,-100.00,East,93,10.0,14.0,8,-99.99,,,-99.99,,2013-01-22 07:52:00,